Tracking 20942 objects as of 13-Jul-2020
HD Live streaming from Space Station
objects crossing your sky now

THOR ABLESTAR DEB *

Track THOR ABLESTAR DEB * now!
10-day predictions


NORAD ID: 18651
Int'l Code: 1961-015LW
Perigee: 924.3 km
Apogee: 2,100.4 km
Inclination: 65.7 °
Period: 116.1 minutes
Semi major axis: 7883 km
RCS: 0.0068 m2 (small)
Launch date: June 29, 1961
Source: United States (US)
Launch site: AIR FORCE EASTERN TEST RANGE (AFETR)

Note: This is SATELLITE DEBRIS
aabbcc
Your satellite tracking list
Your tracking list is empty




NASA's NSSDC Master Catalog

Two Line Element Set (TLE):
1 18651U 61015LW  20193.25587660 -.00000056 +00000-0 +36157-5 0  9997
2 18651 065.6936 195.4592 0745923 000.0246 084.8869 12.40328674335545
Source of the keplerian elements: AFSPC